CW9451 Weather Reports


Display with metric or nautical units.
time (UTC)temp
F
wind
direction
speed
MPH
gust
MPH
rain 1hr
in
rain 24hr
in
rain mn
in
humidity
%
barometer
mb
20260902043905 58 0.0 0.0 0.00 0.00 0.00 10 1021.8
20260902042904 58 0.0 0.0 0.00 0.00 0.00 10 1022.0
20260902041905 58 0.0 0.0 0.00 0.00 0.00 10 1022.0
20260902040911 58 0.0 0.0 0.00 0.00 0.00 10 1022.0
20260902034904 58 0.0 0.0 0.00 0.00 0.00 10 1022.0
20260902033908 58 0.0 0.0 0.00 0.00 0.00 10 1021.9
20260902031904 58 0.0 0.0 0.00 0.00 0.00 99 1021.7
20260902030904 58 0.0 0.0 0.00 0.00 0.00 99 1021.8
20260902025904 59 0.0 0.0 0.00 0.00 0.00 10 1022.1
20260902024904 59 0.0 0.0 0.00 0.00 0.00 10 1022.0
20260902023905 59 0.0 0.0 0.00 0.00 0.00 99 1022.1
20260902022909 58 0.0 0.0 0.00 0.00 0.00 99 1022.1
20260902020903 58 0.0 0.0 0.00 0.00 0.00 97 1021.7
20260902015903 58 0.0 0.0 0.00 0.00 0.00 97 1021.6
20260902014904 58 0.0 0.0 0.00 0.00 0.00 97 1021.6
20260902013905 58 0.0 0.0 0.00 0.00 0.00 96 1021.5
20260902012909 59 0.0 0.0 0.00 0.00 0.00 95 1021.4
20260902005904 59 0.0 0.0 0.00 0.00 0.00 96 1021.4
20260902004904 59 0.0 0.0 0.00 0.00 0.00 96 1021.5
20260902003909 60 0.0 0.0 0.00 0.00 0.00 97 1021.7
20260902000904 60 0.0 0.0 0.00 0.00 0.00 98 1021.9
20260901235904 60 0.0 0.0 0.00 0.00 0.00 98 1021.8
20260901234904 60 0.0 0.0 0.00 0.00 0.00 99 1021.8
20260901233946 61 0.0 0.0 0.00 0.00 0.00 99 1021.9
20260901231908 61 0.0 0.0 0.00 0.00 0.00 99 1021.9
20260901225903 61 0.0 0.0 0.00 0.00 0.00 10 1021.9
20260901224904 61 0.0 0.0 0.00 0.00 0.00 10 1021.8
20260901223905 61 0.0 0.0 0.00 0.00 0.00 10 1021.8
20260901222904 62 0.0 0.0 0.00 0.00 0.00 10 1021.7
20260901221904 62 0.0 0.0 0.00 0.00 0.00 10 1021.6
20260901220903 62 0.0 0.0 0.00 0.00 0.00 10 1021.7
20260901215904 62 0.0 0.0 0.00 0.00 0.00 10 1021.7
20260901214909 62 0.0 0.0 0.00 0.00 0.00 10 1021.7
20260901211904 62 0.0 0.0 0.00 0.00 0.00 10 1021.7
20260901210903 63 0.0 0.0 0.00 0.00 0.00 10 1021.8
20260901205903 63 0.0 0.0 0.00 0.00 0.00 10 1021.7
20260901204908 63 0.0 0.0 0.00 0.00 0.00 10 1021.8
20260901202904 63 0.0 0.0 0.00 0.00 0.00 10 1021.7
20260901201904 63 0.0 0.0 0.00 0.00 0.00 10 1021.6
20260901200934 63 0.0 0.0 0.00 0.00 0.00 10 1021.6
20260901195905 64 0.0 0.0 0.00 0.00 0.00 10 1021.5
20260901194904 64 0.0 0.0 0.00 0.00 0.00 10 1021.5
20260901193905 64 0.0 0.0 0.00 0.00 0.00 10 1021.6
20260901192906 64 0.0 0.0 0.00 0.00 0.00 10 1021.6
20260901191908 64 0.0 0.0 0.00 0.00 0.00 10 1021.5
20260901185904 65 0.0 0.0 0.00 0.00 0.00 10 1021.4
20260901184904 65 0.0 0.0 0.00 0.00 0.00 10 1021.4
20260901183909 65 0.0 0.0 0.00 0.00 0.00 99 1021.1
20260901181904 66 0.0 0.0 0.00 0.00 0.00 99 1020.8
20260901180905 67 0.0 0.0 0.00 0.00 0.00 98 1020.7
20260901175909 67 0.0 0.0 0.00 0.00 0.00 96 1020.5
20260901173904 71 0.0 0.0 0.00 0.00 0.00 90 1020.9
20260901172909 70 0.0 0.0 0.00 0.00 0.00 90 1020.8
20260901170904 67 0.0 0.0 0.00 0.00 0.00 10 1020.7
20260901165904 66 0.0 0.0 0.00 0.00 0.00 10 1020.6
20260901164904 65 0.0 0.0 0.00 0.00 0.00 98 1020.4
20260901163909 65 0.0 0.0 0.00 0.00 0.00 96 1020.3
20260901161905 66 0.0 0.0 0.00 0.00 0.00 95 1020.1
20260901160909 67 0.0 0.0 0.00 0.00 0.00 93 1020.1
20260901154905 67 0.0 0.0 0.00 0.00 0.00 85 1019.8
20260901153904 67 0.0 0.0 0.00 0.00 0.00 85 1019.6
20260901152905 68 0.0 0.0 0.00 0.00 0.00 83 1019.5
20260901151904 69 0.0 0.0 0.00 0.00 0.00 84 1019.6
20260901150903 69 0.0 0.0 0.00 0.00 0.00 83 1019.5
20260901145908 70 0.0 0.0 0.00 0.00 0.00 83 1019.6
20260901143905 69 0.0 0.0 0.00 0.00 0.00 87 1019.4
20260901142905 70 0.0 0.0 0.00 0.00 0.00 84 1019.2
20260901141905 72 0.0 0.0 0.00 0.00 0.00 80 1019.2
20260901140906 72 0.0 0.0 0.00 0.00 0.00 79 1019.1
20260901135909 72 0.0 0.0 0.00 0.00 0.00 78 1019.1
20260901133905 73 0.0 0.0 0.00 0.00 0.00 77 1019.4
20260901132909 72 0.0 0.0 0.00 0.00 0.00 77 1019.2
20260901130904 73 0.0 0.0 0.00 0.00 0.00 75 1019.1
20260901125905 75 0.0 0.0 0.00 0.00 0.00 74 1019.3
20260901124904 74 0.0 0.0 0.00 0.00 0.00 75 1019.3
20260901123905 74 0.0 0.0 0.00 0.00 0.00 73 1019.4
20260901122904 75 0.0 0.0 0.00 0.00 0.00 76 1019.8
20260901121904 74 0.0 0.0 0.00 0.00 0.00 75 1019.7
20260901120905 73 0.0 0.0 0.00 0.00 0.00 78 1019.8
20260901115904 73 0.0 0.0 0.00 0.00 0.00 77 1019.7
20260901114905 74 0.0 0.0 0.00 0.00 0.00 71 1019.9
20260901113904 75 0.0 0.0 0.00 0.00 0.00 76 1020.3
20260901112903 73 0.0 0.0 0.00 0.00 0.00 77 1020.4
20260901111903 71 0.0 0.0 0.00 0.00 0.00 80 1020.5
20260901110903 71 0.0 0.0 0.00 0.00 0.00 82 1020.5
20260901105904 71 0.0 0.0 0.00 0.00 0.00 82 1020.6
20260901104904 70 0.0 0.0 0.00 0.00 0.00 85 1022.6
20260901103903 69 0.0 0.0 0.00 0.00 0.00 89 1020.7
20260901102905 67 0.0 0.0 0.00 0.00 0.00 94 1020.8
20260901101905 67 0.0 0.0 0.00 0.00 0.00 94 1020.7
20260901100909 67 0.0 0.0 0.00 0.00 0.00 95 1020.9
20260901094903 66 0.0 0.0 0.00 0.00 0.00 99 1020.9
20260901093908 66 0.0 0.0 0.00 0.00 0.00 98 1020.9
20260901091904 65 0.0 0.0 0.00 0.00 0.00 10 1021.0
20260901090904 65 0.0 0.0 0.00 0.00 0.00 10 1021.1
20260901085904 64 0.0 0.0 0.00 0.00 0.00 10 1021.0
20260901084904 64 0.0 0.0 0.00 0.00 0.00 10 1020.9
20260901083909 64 0.0 0.0 0.00 0.00 0.00 10 1020.9
20260901081904 64 0.0 0.0 0.00 0.00 0.00 10 1020.7
20260901080904 64 0.0 0.0 0.00 0.00 0.00 10 1020.8
20260901075905 63 0.0 0.0 0.00 0.00 0.00 10 1020.8
20260901074909 63 0.0 0.0 0.00 0.00 0.00 10 1020.6
20260901072908 63 0.0 0.0 0.00 0.00 0.00 10 1020.6
20260901065905 62 0.0 0.0 0.00 0.00 0.00 10 1020.4
20260901064904 62 0.0 0.0 0.00 0.00 0.00 10 1020.3
20260901063905 62 0.0 0.0 0.00 0.00 0.00 10 1020.3
20260901062904 62 0.0 0.0 0.00 0.00 0.00 10 1020.2
20260901061905 62 0.0 0.0 0.00 0.00 0.00 10 1020.2
20260901060904 62 0.0 0.0 0.00 0.00 0.00 10 1020.1
20260901055905 62 0.0 0.0 0.00 0.00 0.00 10 1020.1
20260901054905 61 0.0 0.0 0.00 0.00 0.00 10 1020.0
20260901053904 62 0.0 0.0 0.00 0.00 0.00 10 1020.0
20260901052904 62 0.0 0.0 0.00 0.00 0.00 10 1020.0
20260901051904 61 0.0 0.0 0.00 0.00 0.00 10 1019.9
20260901050903 61 0.0 0.0 0.00 0.00 0.00 10 1019.9
20260901045908 61 0.0 0.0 0.00 0.00 0.00 10 1019.8